Location: *
(37.5724°S, 58.0067°E)
Time: 11:39:16
(UTC+00:00)

GEOS 3 Rocket - Pass Details

Date: 26 September 2020
Orbit: 770 x 849 km, 115.0° (Epoch: 29 October)

Event Time Altitude Azimuth Distance (km) Brightness Sun altitude
Rises 14:31:16 0° 144° (SE) 3,274 6.5 -5.4°
Reaches altitude 10° 14:33:33 10° 141° (SE) 2,342 5.7 -5.8°
Maximum altitude 14:38:36 69° 57° (ENE) 840 3.5 -6.8°
Drops below altitude 10° 14:43:39 10° 334° (NNW) 2,344 6.3 -7.8°
Sets 14:45:57 0° 331° (NNW) 3,276 7.1 -8.3°
